Powrót do katalogu

OPS 0856 DEB

LostPO
NORAD 25097·DEBRIS·🇺🇸 United States

Wystrzelony Aug 19, 1966 z Vandenberg Space Force Base

Loading…

Następne Przeloty (najbliższe 24 godziny)

TLE

NieaktualneSource: Space-Track

Epoka: May 7, 2026, 23:42 UTC

1 25097U 66077S   26127.98757049 -.00000665  00000-0 -27693-1 0  9993
2 25097  88.2341 133.6972 1992327  68.6249 311.4962  8.93472887345789

Śledź OPS 0856 DEB w czasie rzeczywistym z AllMySat

Download on the App Store